station,date_time,water_elev
365216089091101,05/03/2011 00:12,311.81
365216089091101,05/03/2011 00:13,312.08
365216089091101,05/03/2011 00:14,312.42
365216089091101,05/03/2011 00:15,312.63
365216089091101,05/03/2011 00:16,312.71
365216089091101,05/03/2011 00:17,312.86
365216089091101,05/03/2011 00:18,312.93
365216089091101,05/03/2011 00:19,313.07
365216089091101,05/03/2011 00:20,313.04
365216089091101,05/03/2011 00:21,313.07
365216089091101,05/03/2011 00:22,313.04
365216089091101,05/03/2011 00:23,313.22
365216089091101,05/03/2011 00:24,313.23
365216089091101,05/03/2011 00:25,313.34
365216089091101,05/03/2011 00:26,313.41
365216089091101,05/03/2011 00:27,313.5
365216089091101,05/03/2011 00:28,313.57
365216089091101,05/03/2011 00:29,313.52
365216089091101,05/03/2011 00:30,313.61
365216089091101,05/03/2011 00:31,313.71
365216089091101,05/03/2011 00:32,313.79
365216089091101,05/03/2011 00:33,313.77
365216089091101,05/03/2011 00:34,313.85
365216089091101,05/03/2011 00:35,313.95
365216089091101,05/03/2011 00:36,313.96
365216089091101,05/03/2011 00:37,314.05
365216089091101,05/03/2011 00:38,314.06
365216089091101,05/03/2011 00:39,314.15
365216089091101,05/03/2011 00:40,314.12
365216089091101,05/03/2011 00:41,314.25
365216089091101,05/03/2011 00:42,314.37
365216089091101,05/03/2011 00:43,314.43
365216089091101,05/03/2011 00:44,314.43
365216089091101,05/03/2011 00:45,314.49
365216089091101,05/03/2011 00:46,314.59
365216089091101,05/03/2011 00:47,314.61
365216089091101,05/03/2011 00:48,314.68
365216089091101,05/03/2011 00:49,314.72
365216089091101,05/03/2011 00:50,314.78
365216089091101,05/03/2011 00:51,314.73
365216089091101,05/03/2011 00:52,314.86
365216089091101,05/03/2011 00:53,314.79
365216089091101,05/03/2011 00:54,314.78
365216089091101,05/03/2011 00:55,314.92
365216089091101,05/03/2011 00:56,315.05
365216089091101,05/03/2011 00:57,314.99
365216089091101,05/03/2011 00:58,315.15
365216089091101,05/03/2011 00:59,315.16
365216089091101,05/03/2011 01:00,315.12
365216089091101,05/03/2011 01:01,315.22
365216089091101,05/03/2011 01:02,315.23
365216089091101,05/03/2011 01:03,315.35
365216089091101,05/03/2011 01:04,315.5
365216089091101,05/03/2011 01:05,315.33
365216089091101,05/03/2011 01:06,315.52
365216089091101,05/03/2011 01:07,315.57
365216089091101,05/03/2011 01:08,315.59
365216089091101,05/03/2011 01:09,315.72
365216089091101,05/03/2011 01:10,315.72
365216089091101,05/03/2011 01:11,315.83
365216089091101,05/03/2011 01:12,315.85
365216089091101,05/03/2011 01:13,315.82
365216089091101,05/03/2011 01:14,315.92
365216089091101,05/03/2011 01:15,316.08
365216089091101,05/03/2011 01:16,316.12
365216089091101,05/03/2011 01:17,316.22
365216089091101,05/03/2011 01:18,316.23
365216089091101,05/03/2011 01:19,316.38
365216089091101,05/03/2011 01:20,316.43
365216089091101,05/03/2011 01:21,316.51
365216089091101,05/03/2011 01:22,316.57
365216089091101,05/03/2011 01:23,316.62
365216089091101,05/03/2011 01:24,316.75
365216089091101,05/03/2011 01:25,316.8
365216089091101,05/03/2011 01:26,316.85
365216089091101,05/03/2011 01:27,316.83
365216089091101,05/03/2011 01:28,316.9
365216089091101,05/03/2011 01:29,316.99
365216089091101,05/03/2011 01:30,317.13
365216089091101,05/03/2011 01:31,317.2
365216089091101,05/03/2011 01:32,317.2
365216089091101,05/03/2011 01:33,317.32
365216089091101,05/03/2011 01:34,317.38
365216089091101,05/03/2011 01:35,317.36
365216089091101,05/03/2011 01:36,317.48
365216089091101,05/03/2011 01:37,317.54
365216089091101,05/03/2011 01:38,317.48
365216089091101,05/03/2011 01:39,317.59
365216089091101,05/03/2011 01:40,317.59
365216089091101,05/03/2011 01:41,317.68
365216089091101,05/03/2011 01:42,317.7
365216089091101,05/03/2011 01:43,317.7
365216089091101,05/03/2011 01:44,317.81
365216089091101,05/03/2011 01:45,317.87
365216089091101,05/03/2011 01:46,317.91
365216089091101,05/03/2011 01:47,317.99
365216089091101,05/03/2011 01:48,318.02
365216089091101,05/03/2011 01:49,318.02
365216089091101,05/03/2011 01:50,318.04
365216089091101,05/03/2011 01:51,318.11
365216089091101,05/03/2011 01:52,318.21
365216089091101,05/03/2011 01:53,318.2
365216089091101,05/03/2011 01:54,318.36
365216089091101,05/03/2011 01:55,318.36
365216089091101,05/03/2011 01:56,318.43
365216089091101,05/03/2011 01:57,318.39
365216089091101,05/03/2011 01:58,318.46
365216089091101,05/03/2011 01:59,318.46
365216089091101,05/03/2011 02:00,318.51
365216089091101,05/03/2011 02:01,318.61
365216089091101,05/03/2011 02:02,318.63
365216089091101,05/03/2011 02:03,318.7
365216089091101,05/03/2011 02:04,318.75
365216089091101,05/03/2011 02:05,318.77
365216089091101,05/03/2011 02:06,318.78
365216089091101,05/03/2011 02:07,318.82
365216089091101,05/03/2011 02:08,318.87
365216089091101,05/03/2011 02:09,318.95
365216089091101,05/03/2011 02:10,318.95
365216089091101,05/03/2011 02:11,318.99
365216089091101,05/03/2011 02:12,319.06
365216089091101,05/03/2011 02:13,319.14
365216089091101,05/03/2011 02:14,319.11
365216089091101,05/03/2011 02:15,319.2
365216089091101,05/03/2011 02:16,319.19
365216089091101,05/03/2011 02:17,319.24
365216089091101,05/03/2011 02:18,319.31
365216089091101,05/03/2011 02:19,319.32
365216089091101,05/03/2011 02:20,319.35
365216089091101,05/03/2011 02:21,319.39
365216089091101,05/03/2011 02:22,319.44
365216089091101,05/03/2011 02:23,319.46
365216089091101,05/03/2011 02:24,319.53
365216089091101,05/03/2011 02:25,319.57
365216089091101,05/03/2011 02:26,319.53
365216089091101,05/03/2011 02:27,319.61
365216089091101,05/03/2011 02:28,319.62
365216089091101,05/03/2011 02:29,319.66
365216089091101,05/03/2011 02:30,319.7
365216089091101,05/03/2011 02:31,319.7
365216089091101,05/03/2011 02:32,319.71
365216089091101,05/03/2011 02:33,319.79
365216089091101,05/03/2011 02:34,319.79
365216089091101,05/03/2011 02:35,319.82
365216089091101,05/03/2011 02:36,319.83
365216089091101,05/03/2011 02:37,319.89
365216089091101,05/03/2011 02:38,319.9
365216089091101,05/03/2011 02:39,319.89
365216089091101,05/03/2011 02:40,319.94
365216089091101,05/03/2011 02:41,319.94
365216089091101,05/03/2011 02:42,319.96
365216089091101,05/03/2011 02:43,320
365216089091101,05/03/2011 02:44,320.02
365216089091101,05/03/2011 02:45,320.05
365216089091101,05/03/2011 02:46,320.05
365216089091101,05/03/2011 02:47,320.09
365216089091101,05/03/2011 02:48,320.1
365216089091101,05/03/2011 02:49,320.15
365216089091101,05/03/2011 02:50,320.11
365216089091101,05/03/2011 02:51,320.15
365216089091101,05/03/2011 02:52,320.2
365216089091101,05/03/2011 02:53,320.23
365216089091101,05/03/2011 02:54,320.23
365216089091101,05/03/2011 02:55,320.27
365216089091101,05/03/2011 02:56,320.29
365216089091101,05/03/2011 02:57,320.3
365216089091101,05/03/2011 02:58,320.29
365216089091101,05/03/2011 02:59,320.31
365216089091101,05/03/2011 03:00,320.32
365216089091101,05/03/2011 03:01,320.34
365216089091101,05/03/2011 03:02,320.31
365216089091101,05/03/2011 03:03,320.36
365216089091101,05/03/2011 03:04,320.38
365216089091101,05/03/2011 03:05,320.41
365216089091101,05/03/2011 03:06,320.44
365216089091101,05/03/2011 03:07,320.42
365216089091101,05/03/2011 03:08,320.45
365216089091101,05/03/2011 03:09,320.47
365216089091101,05/03/2011 03:10,320.52
365216089091101,05/03/2011 03:11,320.54
365216089091101,05/03/2011 03:12,320.55
365216089091101,05/03/2011 03:13,320.58
365216089091101,05/03/2011 03:14,320.56
365216089091101,05/03/2011 03:15,320.57
365216089091101,05/03/2011 03:16,320.61
365216089091101,05/03/2011 03:17,320.62
365216089091101,05/03/2011 03:18,320.62
365216089091101,05/03/2011 03:19,320.64
365216089091101,05/03/2011 03:20,320.66
365216089091101,05/03/2011 03:21,320.67
365216089091101,05/03/2011 03:22,320.7
365216089091101,05/03/2011 03:23,320.72
365216089091101,05/03/2011 03:24,320.74
365216089091101,05/03/2011 03:25,320.73
365216089091101,05/03/2011 03:26,320.76
365216089091101,05/03/2011 03:27,320.77
365216089091101,05/03/2011 03:28,320.81
365216089091101,05/03/2011 03:29,320.82
365216089091101,05/03/2011 03:30,320.82
365216089091101,05/03/2011 03:31,320.86
365216089091101,05/03/2011 03:32,320.86
365216089091101,05/03/2011 03:33,320.88
365216089091101,05/03/2011 03:34,320.89
365216089091101,05/03/2011 03:35,320.92
365216089091101,05/03/2011 03:36,320.91
365216089091101,05/03/2011 03:37,320.93
365216089091101,05/03/2011 03:38,320.94
365216089091101,05/03/2011 03:39,320.96
365216089091101,05/03/2011 03:40,320.96
365216089091101,05/03/2011 03:41,320.96
365216089091101,05/03/2011 03:42,320.98
365216089091101,05/03/2011 03:43,321
365216089091101,05/03/2011 03:44,321.01
365216089091101,05/03/2011 03:45,321.01
365216089091101,05/03/2011 03:46,321.03
365216089091101,05/03/2011 03:47,321.04
365216089091101,05/03/2011 03:48,321.08
365216089091101,05/03/2011 03:49,321.09
365216089091101,05/03/2011 03:50,321.09
365216089091101,05/03/2011 03:51,321.09
365216089091101,05/03/2011 03:52,321.12
365216089091101,05/03/2011 03:53,321.15
365216089091101,05/03/2011 03:54,321.14
365216089091101,05/03/2011 03:55,321.15
365216089091101,05/03/2011 03:56,321.16
365216089091101,05/03/2011 03:57,321.16
365216089091101,05/03/2011 03:58,321.18
365216089091101,05/03/2011 03:59,321.19
365216089091101,05/03/2011 04:00,321.2
365216089091101,05/03/2011 04:01,321.21
365216089091101,05/03/2011 04:02,321.24
365216089091101,05/03/2011 04:03,321.23
365216089091101,05/03/2011 04:04,321.21
365216089091101,05/03/2011 04:05,321.23
365216089091101,05/03/2011 04:06,321.24
365216089091101,05/03/2011 04:07,321.26
365216089091101,05/03/2011 04:08,321.25
365216089091101,05/03/2011 04:09,321.28
365216089091101,05/03/2011 04:10,321.27
365216089091101,05/03/2011 04:11,321.28
365216089091101,05/03/2011 04:12,321.24
365216089091101,05/03/2011 04:13,321.29
365216089091101,05/03/2011 04:14,321.28
365216089091101,05/03/2011 04:15,321.32
365216089091101,05/03/2011 04:16,321.29
365216089091101,05/03/2011 04:17,321.34
365216089091101,05/03/2011 04:18,321.32
365216089091101,05/03/2011 04:19,321.32
365216089091101,05/03/2011 04:20,321.34
365216089091101,05/03/2011 04:21,321.36
365216089091101,05/03/2011 04:22,321.36
365216089091101,05/03/2011 04:23,321.37
365216089091101,05/03/2011 04:24,321.32
365216089091101,05/03/2011 04:25,321.36
365216089091101,05/03/2011 04:26,321.36
365216089091101,05/03/2011 04:27,321.36
365216089091101,05/03/2011 04:28,321.39
365216089091101,05/03/2011 04:29,321.4
365216089091101,05/03/2011 04:30,321.4
365216089091101,05/03/2011 04:31,321.41
365216089091101,05/03/2011 04:32,321.4
365216089091101,05/03/2011 04:33,321.42
365216089091101,05/03/2011 04:34,321.42
365216089091101,05/03/2011 04:35,321.45
365216089091101,05/03/2011 04:36,321.46
365216089091101,05/03/2011 04:37,321.48
365216089091101,05/03/2011 04:38,321.48
365216089091101,05/03/2011 04:39,321.48
365216089091101,05/03/2011 04:40,321.47
365216089091101,05/03/2011 04:41,321.47
365216089091101,05/03/2011 04:42,321.47
365216089091101,05/03/2011 04:43,321.43
365216089091101,05/03/2011 04:44,321.46
365216089091101,05/03/2011 04:45,321.47
365216089091101,05/03/2011 04:46,321.45
365216089091101,05/03/2011 04:47,321.5
365216089091101,05/03/2011 04:48,321.48
365216089091101,05/03/2011 04:49,321.52
365216089091101,05/03/2011 04:50,321.51
365216089091101,05/03/2011 04:51,321.5
365216089091101,05/03/2011 04:52,321.51
365216089091101,05/03/2011 04:53,321.49
365216089091101,05/03/2011 04:54,321.49
365216089091101,05/03/2011 04:55,321.49
365216089091101,05/03/2011 04:56,321.52
365216089091101,05/03/2011 04:57,321.52
365216089091101,05/03/2011 04:58,321.51
365216089091101,05/03/2011 04:59,321.5
365216089091101,05/03/2011 05:00,321.52
365216089091101,05/03/2011 05:01,321.54
365216089091101,05/03/2011 05:02,321.56
365216089091101,05/03/2011 05:03,321.53
365216089091101,05/03/2011 05:04,321.55
365216089091101,05/03/2011 05:05,321.54
365216089091101,05/03/2011 05:06,321.58
365216089091101,05/03/2011 05:07,321.57
365216089091101,05/03/2011 05:08,321.58
365216089091101,05/03/2011 05:09,321.57
365216089091101,05/03/2011 05:10,321.58
365216089091101,05/03/2011 05:11,321.6
365216089091101,05/03/2011 05:12,321.61
365216089091101,05/03/2011 05:13,321.58
365216089091101,05/03/2011 05:14,321.6
365216089091101,05/03/2011 05:15,321.6
365216089091101,05/03/2011 05:16,321.6
365216089091101,05/03/2011 05:17,321.59
365216089091101,05/03/2011 05:18,321.63
365216089091101,05/03/2011 05:19,321.62
365216089091101,05/03/2011 05:20,321.6
365216089091101,05/03/2011 05:21,321.6
365216089091101,05/03/2011 05:22,321.6
365216089091101,05/03/2011 05:23,321.62
365216089091101,05/03/2011 05:24,321.62
365216089091101,05/03/2011 05:25,321.63
365216089091101,05/03/2011 05:26,321.62
365216089091101,05/03/2011 05:27,321.63
365216089091101,05/03/2011 05:28,321.62
365216089091101,05/03/2011 05:29,321.63
365216089091101,05/03/2011 05:30,321.64
365216089091101,05/03/2011 05:31,321.63
365216089091101,05/03/2011 05:32,321.63
365216089091101,05/03/2011 05:33,321.63
365216089091101,05/03/2011 05:34,321.64
365216089091101,05/03/2011 05:35,321.64
365216089091101,05/03/2011 05:36,321.64
365216089091101,05/03/2011 05:37,321.65
365216089091101,05/03/2011 05:38,321.65
365216089091101,05/03/2011 05:39,321.64
365216089091101,05/03/2011 05:40,321.67
365216089091101,05/03/2011 05:41,321.64
365216089091101,05/03/2011 05:42,321.63
365216089091101,05/03/2011 05:43,321.66
365216089091101,05/03/2011 05:44,321.67
365216089091101,05/03/2011 05:45,321.66
365216089091101,05/03/2011 05:46,321.67
365216089091101,05/03/2011 05:47,321.66
365216089091101,05/03/2011 05:48,321.66
365216089091101,05/03/2011 05:49,321.69
365216089091101,05/03/2011 05:50,321.7
365216089091101,05/03/2011 05:51,321.69
365216089091101,05/03/2011 05:52,321.68
365216089091101,05/03/2011 05:53,321.67
365216089091101,05/03/2011 05:54,321.68
365216089091101,05/03/2011 05:55,321.67
365216089091101,05/03/2011 05:56,321.68
365216089091101,05/03/2011 05:57,321.7
365216089091101,05/03/2011 05:58,321.68
365216089091101,05/03/2011 05:59,321.69
365216089091101,05/03/2011 06:00,321.69
365216089091101,05/03/2011 06:01,321.68
365216089091101,05/03/2011 06:02,321.67
365216089091101,05/03/2011 06:03,321.63
365216089091101,05/03/2011 06:04,321.66
365216089091101,05/03/2011 06:05,321.67
365216089091101,05/03/2011 06:06,321.7
365216089091101,05/03/2011 06:07,321.7
365216089091101,05/03/2011 06:08,321.72
365216089091101,05/03/2011 06:09,321.72
365216089091101,05/03/2011 06:10,321.72
365216089091101,05/03/2011 06:11,321.74
365216089091101,05/03/2011 06:12,321.73
365216089091101,05/03/2011 06:13,321.75
365216089091101,05/03/2011 06:14,321.74
365216089091101,05/03/2011 06:15,321.73
365216089091101,05/03/2011 06:16,321.7
365216089091101,05/03/2011 06:17,321.71
365216089091101,05/03/2011 06:18,321.7
365216089091101,05/03/2011 06:19,321.67
365216089091101,05/03/2011 06:20,321.67
365216089091101,05/03/2011 06:21,321.68
365216089091101,05/03/2011 06:22,321.69
365216089091101,05/03/2011 06:23,321.69
365216089091101,05/03/2011 06:24,321.71
365216089091101,05/03/2011 06:25,321.71
365216089091101,05/03/2011 06:26,321.72
365216089091101,05/03/2011 06:27,321.72
365216089091101,05/03/2011 06:28,321.73
365216089091101,05/03/2011 06:29,321.73
365216089091101,05/03/2011 06:30,321.71
365216089091101,05/03/2011 06:31,321.74
365216089091101,05/03/2011 06:32,321.72
365216089091101,05/03/2011 06:33,321.68
365216089091101,05/03/2011 06:34,321.72
365216089091101,05/03/2011 06:35,321.73
365216089091101,05/03/2011 06:36,321.74
365216089091101,05/03/2011 06:37,321.73
365216089091101,05/03/2011 06:38,321.74
365216089091101,05/03/2011 06:39,321.74
365216089091101,05/03/2011 06:40,321.73
365216089091101,05/03/2011 06:41,321.74
365216089091101,05/03/2011 06:42,321.73
365216089091101,05/03/2011 06:43,321.75
365216089091101,05/03/2011 06:44,321.73
365216089091101,05/03/2011 06:45,321.72
365216089091101,05/03/2011 06:46,321.72
365216089091101,05/03/2011 06:47,321.7
365216089091101,05/03/2011 06:48,321.72
365216089091101,05/03/2011 06:49,321.68
365216089091101,05/03/2011 06:50,321.73
365216089091101,05/03/2011 06:51,321.75
365216089091101,05/03/2011 06:52,321.72
365216089091101,05/03/2011 06:53,321.75
365216089091101,05/03/2011 06:54,321.75
365216089091101,05/03/2011 06:55,321.76
365216089091101,05/03/2011 06:56,321.74
365216089091101,05/03/2011 06:57,321.73
365216089091101,05/03/2011 06:58,321.74
365216089091101,05/03/2011 06:59,321.73
365216089091101,05/03/2011 07:00,321.75
365216089091101,05/03/2011 07:01,321.74
365216089091101,05/03/2011 07:02,321.73
365216089091101,05/03/2011 07:03,321.73
365216089091101,05/03/2011 07:04,321.75
365216089091101,05/03/2011 07:05,321.72
365216089091101,05/03/2011 07:06,321.74
365216089091101,05/03/2011 07:07,321.74
365216089091101,05/03/2011 07:08,321.73
365216089091101,05/03/2011 07:09,321.73
365216089091101,05/03/2011 07:10,321.74
365216089091101,05/03/2011 07:11,321.76
365216089091101,05/03/2011 07:12,321.76
365216089091101,05/03/2011 07:13,321.77
365216089091101,05/03/2011 07:14,321.74
365216089091101,05/03/2011 07:15,321.76
365216089091101,05/03/2011 07:16,321.74
365216089091101,05/03/2011 07:17,321.74
365216089091101,05/03/2011 07:18,321.74
365216089091101,05/03/2011 07:19,321.74
365216089091101,05/03/2011 07:20,321.75
365216089091101,05/03/2011 07:21,321.77
365216089091101,05/03/2011 07:22,321.78
365216089091101,05/03/2011 07:23,321.77
365216089091101,05/03/2011 07:24,321.77
365216089091101,05/03/2011 07:25,321.77
365216089091101,05/03/2011 07:26,321.77
365216089091101,05/03/2011 07:27,321.78
365216089091101,05/03/2011 07:28,321.77
365216089091101,05/03/2011 07:29,321.78
365216089091101,05/03/2011 07:30,321.78
365216089091101,05/03/2011 07:31,321.79
365216089091101,05/03/2011 07:32,321.77
365216089091101,05/03/2011 07:33,321.73
365216089091101,05/03/2011 07:34,321.75
365216089091101,05/03/2011 07:35,321.75
365216089091101,05/03/2011 07:36,321.77
365216089091101,05/03/2011 07:37,321.77
365216089091101,05/03/2011 07:38,321.77
365216089091101,05/03/2011 07:39,321.76
365216089091101,05/03/2011 07:40,321.77
365216089091101,05/03/2011 07:41,321.76
365216089091101,05/03/2011 07:42,321.77
365216089091101,05/03/2011 07:43,321.76
365216089091101,05/03/2011 07:44,321.77
365216089091101,05/03/2011 07:45,321.75
365216089091101,05/03/2011 07:46,321.74
365216089091101,05/03/2011 07:47,321.76
365216089091101,05/03/2011 07:48,321.76
365216089091101,05/03/2011 07:49,321.76
365216089091101,05/03/2011 07:50,321.73
365216089091101,05/03/2011 07:51,321.73
365216089091101,05/03/2011 07:52,321.76
365216089091101,05/03/2011 07:53,321.76
365216089091101,05/03/2011 07:54,321.72
365216089091101,05/03/2011 07:55,321.75
365216089091101,05/03/2011 07:56,321.76
365216089091101,05/03/2011 07:57,321.76
365216089091101,05/03/2011 07:58,321.73
365216089091101,05/03/2011 07:59,321.76
365216089091101,05/03/2011 08:00,321.74
365216089091101,05/03/2011 08:01,321.75
365216089091101,05/03/2011 08:02,321.76
365216089091101,05/03/2011 08:03,321.74
365216089091101,05/03/2011 08:04,321.76
365216089091101,05/03/2011 08:05,321.73
365216089091101,05/03/2011 08:06,321.74
365216089091101,05/03/2011 08:07,321.77
365216089091101,05/03/2011 08:08,321.74
365216089091101,05/03/2011 08:09,321.76
365216089091101,05/03/2011 08:10,321.77
365216089091101,05/03/2011 08:11,321.76
365216089091101,05/03/2011 08:12,321.75
365216089091101,05/03/2011 08:13,321.77
365216089091101,05/03/2011 08:14,321.75
365216089091101,05/03/2011 08:15,321.73
365216089091101,05/03/2011 08:16,321.76
365216089091101,05/03/2011 08:17,321.73
365216089091101,05/03/2011 08:18,321.73
365216089091101,05/03/2011 08:19,321.75
365216089091101,05/03/2011 08:20,321.76
365216089091101,05/03/2011 08:21,321.73
365216089091101,05/03/2011 08:22,321.76
365216089091101,05/03/2011 08:23,321.77
365216089091101,05/03/2011 08:24,321.76
365216089091101,05/03/2011 08:25,321.77
365216089091101,05/03/2011 08:26,321.76
365216089091101,05/03/2011 08:27,321.76
365216089091101,05/03/2011 08:28,321.77
365216089091101,05/03/2011 08:29,321.74
365216089091101,05/03/2011 08:30,321.73
365216089091101,05/03/2011 08:31,321.75
365216089091101,05/03/2011 08:32,321.74
365216089091101,05/03/2011 08:33,321.76
365216089091101,05/03/2011 08:34,321.76
365216089091101,05/03/2011 08:35,321.75
365216089091101,05/03/2011 08:36,321.76
365216089091101,05/03/2011 08:37,321.76
365216089091101,05/03/2011 08:38,321.74
365216089091101,05/03/2011 08:39,321.77
365216089091101,05/03/2011 08:40,321.77
365216089091101,05/03/2011 08:41,321.76
365216089091101,05/03/2011 08:42,321.77
365216089091101,05/03/2011 08:43,321.75
365216089091101,05/03/2011 08:44,321.75
365216089091101,05/03/2011 08:45,321.76
365216089091101,05/03/2011 08:46,321.75
365216089091101,05/03/2011 08:47,321.76
365216089091101,05/03/2011 08:48,321.74
365216089091101,05/03/2011 08:49,321.76
365216089091101,05/03/2011 08:50,321.77
365216089091101,05/03/2011 08:51,321.73
365216089091101,05/03/2011 08:52,321.74
365216089091101,05/03/2011 08:53,321.74
365216089091101,05/03/2011 08:54,321.75
365216089091101,05/03/2011 08:55,321.75
365216089091101,05/03/2011 08:56,321.77
365216089091101,05/03/2011 08:57,321.77
365216089091101,05/03/2011 08:58,321.73
365216089091101,05/03/2011 08:59,321.75
365216089091101,05/03/2011 09:00,321.76
365216089091101,05/03/2011 09:01,321.73
365216089091101,05/03/2011 09:02,321.74
365216089091101,05/03/2011 09:03,321.74
365216089091101,05/03/2011 09:04,321.72
365216089091101,05/03/2011 09:05,321.74
365216089091101,05/03/2011 09:06,321.74
365216089091101,05/03/2011 09:07,321.74
365216089091101,05/03/2011 09:08,321.74
365216089091101,05/03/2011 09:09,321.74
365216089091101,05/03/2011 09:10,321.75
365216089091101,05/03/2011 09:11,321.76
365216089091101,05/03/2011 09:12,321.74
365216089091101,05/03/2011 09:13,321.74
365216089091101,05/03/2011 09:14,321.75
365216089091101,05/03/2011 09:15,321.74
365216089091101,05/03/2011 09:16,321.74
365216089091101,05/03/2011 09:17,321.75
365216089091101,05/03/2011 09:18,321.73
365216089091101,05/03/2011 09:19,321.72
365216089091101,05/03/2011 09:20,321.74
365216089091101,05/03/2011 09:21,321.72
365216089091101,05/03/2011 09:22,321.74
365216089091101,05/03/2011 09:23,321.73
365216089091101,05/03/2011 09:24,321.72
365216089091101,05/03/2011 09:25,321.74
365216089091101,05/03/2011 09:26,321.74
365216089091101,05/03/2011 09:27,321.72
365216089091101,05/03/2011 09:28,321.7
365216089091101,05/03/2011 09:29,321.72
365216089091101,05/03/2011 09:30,321.74
365216089091101,05/03/2011 09:31,321.75
365216089091101,05/03/2011 09:32,321.75
365216089091101,05/03/2011 09:33,321.75
365216089091101,05/03/2011 09:34,321.74
365216089091101,05/03/2011 09:35,321.74
365216089091101,05/03/2011 09:36,321.73
365216089091101,05/03/2011 09:37,321.73
365216089091101,05/03/2011 09:38,321.74
365216089091101,05/03/2011 09:39,321.73
365216089091101,05/03/2011 09:40,321.74
365216089091101,05/03/2011 09:41,321.75
365216089091101,05/03/2011 09:42,321.73
365216089091101,05/03/2011 09:43,321.76
365216089091101,05/03/2011 09:44,321.74
365216089091101,05/03/2011 09:45,321.75
365216089091101,05/03/2011 09:46,321.73
365216089091101,05/03/2011 09:47,321.73
365216089091101,05/03/2011 09:48,321.73
365216089091101,05/03/2011 09:49,321.72
365216089091101,05/03/2011 09:50,321.72
365216089091101,05/03/2011 09:51,321.72
365216089091101,05/03/2011 09:52,321.74
365216089091101,05/03/2011 09:53,321.72
365216089091101,05/03/2011 09:54,321.73
365216089091101,05/03/2011 09:55,321.72
365216089091101,05/03/2011 09:56,321.73